Location: Cussy
(47.0410°N, 4.6412°E)
Time: 15:36:55
(UTC+00:00)

ARGOS - Visible Passes

Search period start: 10 April 2021 00:00
Search period end: 20 April 2021 00:00
Orbit: 819 x 835 km, 98.4° (Epoch: 09 April)

Date Brightness Start Highest point End Pass type
(mag) Time Alt. Az. Time Alt. Az. Time Alt. Az.
10 Apr 5.0 19:26:30 10° SSW 19:31:16 32° W 19:36:04 10° NNW visible
11 Apr 4.4 19:07:21 10° S 19:12:30 45° W 19:17:40 10° NNW visible
12 Apr 3.7 18:48:27 10° S 18:53:47 64° WSW 18:59:09 10° NNW visible
13 Apr 6.0 20:13:34 10° WSW 20:16:09 13° W 20:18:44 10° WNW visible
14 Apr 5.8 19:53:26 10° SW 19:57:15 19° W 20:01:05 10° NW visible
15 Apr 5.3 19:33:51 10° SSW 19:38:25 27° W 19:42:59 10° NW visible
16 Apr 4.7 19:14:37 10° SSW 19:19:38 39° W 19:24:39 10° NNW visible
18 Apr 6.1 20:21:43 10° WSW 20:23:21 11° W 20:24:59 10° WNW visible
19 Apr 5.8 20:01:03 10° SW 20:04:25 17° W 20:07:48 10° NW visible
